Rawlins, WY

3:02 PM MDT on April 29, 2017 (GMT -0600)
Rawlins Municipal

Weather History for KRWL - June, 2013

Change the Weather History Date:

Monday, June 3, 2013

  Actual Average Record
Temperature  
Mean Temperature 58 °F 55 °F  
Max Temperature 74 °F 70 °F 87 °F (2012)
Min Temperature 42 °F 40 °F 21 °F (1951)
Degree Days  
Heating Degree Days 7 10  
Month to date heating degree days 28 31  
Since 1 June heating degree days 28 31  
Since 1 July heating degree days 7927 8234  
Cooling Degree Days 0 0  
Month to date cooling degree days 0 0  
Year to date cooling degree days 1 0  
Since 1 June cooling degree days 0 0  
Growing Degree Days 10 (Base 50)    
Moisture  
Dew Point 13 °F    
Average Humidity 20    
Maximum Humidity 35    
Minimum Humidity 5    
Precipitation  
Precipitation 0.00 in 0.05 in 0.64 in (2009)
Month to date precipitation T 0.13  
Year to date precipitation 2.05 4.05  
Sea Level Pressure  
Sea Level Pressure 29.66 in    
Wind  
Wind Speed 22 mph (West)    
Max Wind Speed 39 mph    
Max Gust Speed 49 mph    
Visibility 10 miles    
Events      
T = Trace of Precipitation, MM = Missing Value Source: NWS Daily Summary

Daily Weather History Graph

Daily Weather History Graph

Search for Another Location

Airport or City:

Trip Planner

Search our weather history database for the weather conditions in past years. The results will help you decide how hot, cold, wet, or windy it might be!

Date:

Astronomy

Jun. 03, 2013 Rise Set
Actual Time 5:35 AM MDT 8:39 PM MDT
Civil Twilight 5:01 AM MDT 9:12 PM MDT
Nautical Twilight 4:18 AM MDT 9:55 PM MDT
Astronomical Twilight 3:28 AM MDT 10:46 PM MDT
Moon 2:38 AM MDT (6/3) 4:09 PM MDT (6/3)
Length of Visible Light 16h 10m
Length of Day
15h 03m
Waning Crescent, 21% of the Moon is Illuminated
Jun 3
Waning Crescent
Jun 8
New
Jun 16
First Quarter
Jun 23
Full
Jun 29
Last Quarter

Hourly Weather History & Observations

Time (MDT) Temp. Windchill Dew Point Humidity Pressure Visibility Wind Dir Wind Speed Gust Speed Precip Events Conditions
12:53 AM 59.0 °F - 23.0 °F 25% 29.56 in 10.0 mi West 6.9 mph - N/A   Clear
1:53 AM 62.1 °F - 19.0 °F 19% 29.51 in 10.0 mi WSW 10.4 mph - N/A   Clear
2:53 AM 62.1 °F - 17.1 °F 18% 29.49 in 10.0 mi SSW 20.7 mph 24.2 mph N/A   Clear
3:53 AM 64.0 °F - 15.1 °F 15% 29.47 in 10.0 mi SW 23.0 mph 29.9 mph N/A   Clear
4:53 AM 59.0 °F - 18.0 °F 20% 29.54 in 10.0 mi WSW 24.2 mph 34.5 mph N/A   Clear
5:53 AM 52.0 °F - 24.1 °F 34% 29.61 in 10.0 mi WSW 16.1 mph - N/A   Clear
6:53 AM 55.0 °F - 28.9 °F 37% 29.62 in 10.0 mi WSW 15.0 mph - N/A   Clear
7:53 AM 57.0 °F - 28.9 °F 34% 29.65 in 10.0 mi West 18.4 mph 21.9 mph N/A   Clear
8:53 AM 61.0 °F - 26.1 °F 26% 29.66 in 10.0 mi West 20.7 mph 27.6 mph N/A   Clear
9:53 AM 64.0 °F - 14.0 °F 14% 29.66 in 10.0 mi West 24.2 mph 33.4 mph N/A   Clear
10:53 AM 66.9 °F - 10.0 °F 11% 29.65 in 10.0 mi WSW 29.9 mph 39.1 mph N/A   Clear
11:53 AM 69.1 °F - 6.1 °F 9% 29.65 in 10.0 mi WSW 24.2 mph 41.4 mph N/A   Clear
12:53 PM 71.1 °F - -0.9 °F 6% 29.66 in 10.0 mi WSW 34.5 mph 43.7 mph N/A   Clear
1:53 PM 72.0 °F - -2.9 °F 5% 29.65 in 10.0 mi West 31.1 mph 42.6 mph N/A   Clear
2:53 PM 72.0 °F - -0.9 °F 6% 29.64 in 10.0 mi West 32.2 mph 48.3 mph N/A   Clear
3:53 PM 72.0 °F - 3.9 °F 7% 29.63 in 10.0 mi West 33.4 mph 41.4 mph N/A   Clear
4:53 PM 71.1 °F - 3.9 °F 7% 29.65 in 10.0 mi West 32.2 mph 42.6 mph N/A   Clear
5:53 PM 70.0 °F - 5.0 °F 8% 29.69 in 10.0 mi West 26.5 mph 40.3 mph N/A   Clear
6:53 PM 66.9 °F - 3.9 °F 8% 29.71 in 10.0 mi West 27.6 mph 41.4 mph N/A   Clear
7:53 PM 64.9 °F - 9.0 °F 11% 29.75 in 10.0 mi West 25.3 mph 33.4 mph N/A   Clear
8:53 PM 61.0 °F - 14.0 °F 16% 29.77 in 10.0 mi WNW 13.8 mph - N/A   Clear
9:53 PM 53.1 °F - 15.1 °F 22% 29.83 in 10.0 mi NNW 8.1 mph - N/A   Clear
10:53 PM 48.0 °F - 17.1 °F 29% 29.86 in 10.0 mi NNW 11.5 mph - N/A   Clear
11:53 PM 45.0 °F 39.3 °F 16.0 °F 31% 29.89 in 10.0 mi WNW 11.5 mph - N/A   Clear